Flag for Syria Weather past 2 weeks in Damascus, Syria

Now
70 °F

Clear.


Feels Like: 70 °F
Forecast: 55 / 89 °F
Wind: 16 mph from Southwest

Location: Damascus Int. Airport

Current Time: Sep 23, 2014 at 12:05:07 AM

Latest Report: Sep 22, 2014 at 11:00 PM


Visibility: 10 mi

Pressure: 29.95 "Hg

Humidity: 57%

Dew point: 54 °F

Location of DamascusLocation

Historic Weather in Damascus — Graph

°F

Damascus temperature yesterday

Maximum temperature yesterday: 88 °F (at 3:00 PM)
Minimum temperature yesterday: 55 °F (at 6:00 AM)
Average temperature yesterday: 72 °F

Past Weeks' High & Low Weather Summary

 TemperatureHumidityPressure
High93 °F (Sep 8, 4:00 PM)88% (Sep 9, 5:00 AM)30.07 "Hg (Sep 9, 5:00 AM)
Low55 °F (Sep 10, 6:00 AM)13% (Sep 12, 4:00 PM)29.71 "Hg (Sep 19, 5:00 AM)
Average74 °F52%29.93 "Hg
* Reported Sep 7 11:00 PM — Sep 22 11:00 PM, Damascus, Weather by CustomWeather, © 2014

Note: Actual official high and low records may vary slightly from our data, if they occured in-between our weather recording intervals... More about our weather records

Advertising

Damascus weather history for previous 24 hours

 ConditionsComfort  
Time TempWeatherWind HumidityBarometerVisibility
11:00 PM
Sep 22
70 °FClear.16 mph57%29.95 "Hg10 mi
10:00 PM72 °FClear.14 mph57%29.95 "Hg10 mi
9:00 PM75 °FClear.7 mph44%29.92 "Hg10 mi
8:00 PM77 °FClear.5 mph39%29.92 "Hg10 mi
7:00 PM79 °FSunny.5 mph32%29.89 "Hg10 mi
6:00 PM84 °FSunny.9 mph27%29.86 "Hg10 mi
5:00 PM86 °FSunny.9 mph25%29.86 "Hg10 mi
4:00 PM88 °FSunny.9 mph24%29.86 "Hg10 mi
3:00 PM88 °FSunny.9 mph22%29.89 "Hg10 mi
2:00 PM86 °FSunny.12 mph20%29.89 "Hg10 mi
1:00 PM82 °FSunny.9 mph23%29.92 "Hg10 mi
12:00 PM79 °FSunny.No wind34%29.95 "Hg10 mi
11:00 AM77 °FPassing clouds.No wind42%29.98 "HgN/A
10:00 AM73 °FPassing clouds.5 mph47%29.98 "HgN/A
9:00 AM68 °FSunny.No wind56%29.98 "Hg10 mi
8:00 AM64 °FSunny.No wind64%29.95 "Hg10 mi
7:00 AM57 °FClear.7 mph67%29.95 "Hg10 mi
6:00 AM55 °FClear.5 mph67%29.92 "Hg10 mi
5:00 AM57 °FClear.6 mph63%29.92 "Hg10 mi
4:00 AM59 °FClear.2 mph59%29.92 "Hg10 mi
3:00 AM57 °FClear.7 mph67%29.92 "Hg10 mi
2:00 AM63 °FClear.5 mph52%29.92 "Hg10 mi
1:00 AM64 °FClear.12 mph60%29.92 "Hg10 mi
12:00 AM66 °FClear.16 mph56%29.92 "Hg10 mi
Weather by CustomWeather, © 2014

See weather overviewHow to use our weather pages